| time (UTC) | temp C | wind direction | speed KPH | gust KPH | rain 1hr cm | rain 24hr cm | rain mn cm | humidity % | barometer mb |
| 20260506071028 | 14 | 325 | 6.4 | 16.1 | 0.00 | 0.00 | 0.00 | 73 | 1010.7 |
| 20260506070528 | 14 | 342 | 4.8 | 17.7 | 0.00 | 0.00 | 0.00 | 73 | 1010.7 |
| 20260506062028 | 15 | 355 | 4.8 | 20.9 | 0.00 | 0.00 | 0.00 | 73 | 1010.6 |
| 20260506061544 | 15 | 335 | 9.7 | 20.9 | 0.00 | 0.00 | 0.00 | 73 | 1010.6 |
| 20260506061030 | 15 | 352 | 9.7 | 20.9 | 0.00 | 0.00 | 0.00 | 73 | 1010.6 |
| 20260506060528 | 15 | 360 | 12.9 | 20.9 | 0.00 | 0.00 | 0.00 | 73 | 1010.6 |
| 20260506051028 | 16 | 312 | 11.3 | 20.9 | 0.00 | 0.00 | 0.00 | 73 | 1010.6 |
| 20260506050528 | 16 | 316 | 8.0 | 19.3 | 0.00 | 0.00 | 0.00 | 73 | 1010.7 |
| 20260506045027 | 16 | 319 | 11.3 | 29.0 | 0.00 | 0.00 | 0.00 | 73 | 1010.6 |
| 20260506044539 | 16 | 46 | 12.9 | 29.0 | 0.00 | 0.00 | 0.00 | 73 | 1010.6 |
| 20260506044029 | 17 | 5 | 14.5 | 27.4 | 0.00 | 0.00 | 0.00 | 73 | 1010.4 |
| 20260506043532 | 17 | 344 | 11.3 | 27.4 | 0.00 | 0.00 | 0.00 | 73 | 1010.5 |
| 20260506043042 | 17 | 346 | 11.3 | 22.5 | 0.00 | 0.00 | 0.00 | 74 | 1010.4 |
| 20260506042528 | 17 | 352 | 9.7 | 24.1 | 0.00 | 0.00 | 0.00 | 74 | 1010.3 |
| 20260506042028 | 17 | 19 | 8.0 | 24.1 | 0.00 | 0.00 | 0.00 | 73 | 1010.2 |
| 20260506041543 | 17 | 327 | 8.0 | 22.5 | 0.00 | 0.00 | 0.00 | 74 | 1010.2 |
| 20260506041028 | 17 | 355 | 8.0 | 20.9 | 0.00 | 0.00 | 0.00 | 74 | 1010.2 |
| 20260506040526 | 17 | 311 | 11.3 | 24.1 | 0.00 | 0.00 | 0.00 | 74 | 1010.0 |
| 20260506040041 | 17 | 50 | 11.3 | 24.1 | 0.00 | 0.00 | 0.00 | 73 | 1009.9 |
| 20260506035529 | 18 | 350 | 11.3 | 24.1 | 0.00 | 0.00 | 0.00 | 73 | 1009.9 |
| 20260506035027 | 18 | 332 | 9.7 | 24.1 | 0.00 | 0.00 | 0.00 | 73 | 1009.9 |
| 20260506034557 | 18 | 315 | 12.9 | 24.1 | 0.00 | 0.00 | 0.00 | 73 | 1009.8 |
| 20260506034029 | 18 | 22 | 11.3 | 24.1 | 0.00 | 0.00 | 0.00 | 72 | 1009.8 |
| 20260506033528 | 18 | 347 | 8.0 | 24.1 | 0.00 | 0.00 | 0.00 | 72 | 1009.7 |
| 20260506033039 | 18 | 329 | 9.7 | 22.5 | 0.00 | 0.00 | 0.00 | 72 | 1009.7 |
| 20260506032528 | 19 | 327 | 11.3 | 24.1 | 0.00 | 0.00 | 0.00 | 72 | 1009.6 |
| 20260506032028 | 19 | 317 | 9.7 | 24.1 | 0.00 | 0.00 | 0.00 | 71 | 1009.7 |
| 20260506031543 | 20 | 336 | 11.3 | 24.1 | 0.00 | 0.00 | 0.00 | 71 | 1009.5 |
| 20260506031027 | 20 | 340 | 9.7 | 20.9 | 0.00 | 0.00 | 0.00 | 72 | 1009.5 |
| 20260506030527 | 20 | 319 | 9.7 | 24.1 | 0.00 | 0.00 | 0.00 | 72 | 1009.2 |
| 20260506030042 | 20 | 350 | 11.3 | 24.1 | 0.00 | 0.00 | 0.00 | 71 | 1009.1 |
| 20260506025526 | 20 | 5 | 12.9 | 24.1 | 0.00 | 0.00 | 0.00 | 71 | 1009.3 |
| 20260506025027 | 20 | 312 | 9.7 | 22.5 | 0.00 | 0.00 | 0.00 | 71 | 1009.0 |
| 20260506024603 | 20 | 313 | 12.9 | 22.5 | 0.00 | 0.00 | 0.00 | 70 | 1008.9 |
| 20260506024028 | 21 | 342 | 9.7 | 22.5 | 0.00 | 0.00 | 0.00 | 70 | 1008.7 |
| 20260506023527 | 21 | 314 | 9.7 | 22.5 | 0.00 | 0.00 | 0.00 | 70 | 1008.4 |
| 20260506023041 | 21 | 316 | 11.3 | 22.5 | 0.00 | 0.00 | 0.00 | 71 | 1008.1 |
| 20260506022527 | 21 | 310 | 6.4 | 22.5 | 0.00 | 0.00 | 0.00 | 70 | 1008.1 |
| 20260506022028 | 21 | 18 | 9.7 | 22.5 | 0.00 | 0.00 | 0.00 | 70 | 1007.7 |
| 20260506021540 | 21 | 336 | 11.3 | 22.5 | 0.00 | 0.00 | 0.00 | 70 | 1007.9 |
| 20260506021028 | 21 | 327 | 11.3 | 20.9 | 0.00 | 0.00 | 0.00 | 69 | 1007.7 |
| 20260506020527 | 22 | 300 | 9.7 | 20.9 | 0.00 | 0.00 | 0.00 | 69 | 1007.6 |
| 20260506020042 | 22 | 348 | 8.0 | 20.9 | 0.00 | 0.00 | 0.00 | 68 | 1007.2 |
| 20260506015528 | 22 | 327 | 8.0 | 17.7 | 0.00 | 0.00 | 0.00 | 68 | 1007.4 |
| 20260506015028 | 22 | 331 | 4.8 | 12.9 | 0.00 | 0.00 | 0.00 | 67 | 1007.3 |
| 20260506014540 | 22 | 309 | 6.4 | 19.3 | 0.00 | 0.00 | 0.00 | 67 | 1007.4 |
| 20260506014026 | 22 | 355 | 8.0 | 19.3 | 0.00 | 0.00 | 0.00 | 67 | 1007.4 |
| 20260506013529 | 22 | 352 | 6.4 | 17.7 | 0.00 | 0.00 | 0.00 | 66 | 1007.1 |
| 20260506013059 | 22 | 341 | 11.3 | 17.7 | 0.00 | 0.00 | 0.00 | 66 | 1007.3 |
| 20260506012527 | 22 | 19 | 6.4 | 17.7 | 0.00 | 0.00 | 0.00 | 66 | 1007.2 |
| 20260506012028 | 22 | 328 | 9.7 | 19.3 | 0.00 | 0.00 | 0.00 | 65 | 1007.2 |
| 20260506011542 | 23 | 355 | 8.0 | 19.3 | 0.00 | 0.00 | 0.00 | 65 | 1007.3 |
| 20260506011029 | 23 | 312 | 6.4 | 20.9 | 0.00 | 0.00 | 0.00 | 65 | 1007.1 |
| 20260506010528 | 23 | 346 | 9.7 | 20.9 | 0.00 | 0.00 | 0.00 | 65 | 1006.7 |
| 20260506010037 | 23 | 317 | 8.0 | 19.3 | 0.00 | 0.00 | 0.00 | 65 | 1006.8 |
| 20260506005527 | 23 | 337 | 6.4 | 17.7 | 0.00 | 0.00 | 0.00 | 64 | 1006.6 |
| 20260506005027 | 23 | 355 | 4.8 | 19.3 | 0.00 | 0.00 | 0.00 | 64 | 1006.1 |
| 20260506004542 | 23 | 306 | 9.7 | 19.3 | 0.00 | 0.00 | 0.00 | 64 | 1006.5 |
| 20260506004027 | 23 | 352 | 8.0 | 17.7 | 0.00 | 0.00 | 0.00 | 64 | 1006.6 |
| 20260506003529 | 23 | 342 | 9.7 | 22.5 | 0.00 | 0.00 | 0.00 | 64 | 1006.5 |
| 20260506003042 | 24 | 350 | 9.7 | 22.5 | 0.00 | 0.00 | 0.00 | 63 | 1006.6 |
| 20260506002528 | 24 | 360 | 6.4 | 20.9 | 0.00 | 0.00 | 0.00 | 63 | 1006.4 |
| 20260506002028 | 25 | 339 | 9.7 | 20.9 | 0.00 | 0.00 | 0.00 | 62 | 1006.4 |
| 20260506001545 | 25 | 352 | 9.7 | 24.1 | 0.00 | 0.00 | 0.00 | 62 | 1006.4 |
| 20260506001028 | 25 | 342 | 4.8 | 24.1 | 0.00 | 0.00 | 0.00 | 61 | 1006.3 |
| 20260506000527 | 26 | 352 | 6.4 | 25.7 | 0.00 | 0.00 | 0.00 | 60 | 1006.2 |
| 20260506000043 | 26 | 286 | 14.5 | 25.7 | 0.00 | 0.00 | 0.00 | 59 | 1005.8 |
| 20260505235526 | 26 | 348 | 6.4 | 19.3 | 0.00 | 0.00 | 0.00 | 59 | 1005.6 |
| 20260505235026 | 26 | 339 | 9.7 | 24.1 | 0.00 | 0.00 | 0.00 | 59 | 1005.6 |
| 20260505234541 | 27 | 327 | 9.7 | 24.1 | 0.00 | 0.00 | 0.00 | 58 | 1005.6 |
| 20260505234028 | 27 | 333 | 9.7 | 22.5 | 0.00 | 0.00 | 0.00 | 57 | 1005.6 |
| 20260505233528 | 27 | 339 | 9.7 | 20.9 | 0.00 | 0.00 | 0.00 | 56 | 1005.7 |
| 20260505233044 | 28 | 338 | 6.4 | 32.2 | 0.00 | 0.00 | 0.00 | 56 | 1005.7 |
| 20260505232527 | 28 | 304 | 11.3 | 32.2 | 0.00 | 0.00 | 0.00 | 54 | 1005.6 |
| 20260505232028 | 29 | 339 | 9.7 | 19.3 | 0.00 | 0.00 | 0.00 | 51 | 1005.4 |
| 20260505231544 | 30 | 315 | 6.4 | 16.1 | 0.00 | 0.00 | 0.00 | 49 | 1005.3 |
| 20260505231032 | 30 | 296 | 6.4 | 17.7 | 0.00 | 0.00 | 0.00 | 48 | 1005.2 |
| 20260505230528 | 30 | 310 | 8.0 | 19.3 | 0.00 | 0.00 | 0.00 | 47 | 1005.2 |
| 20260505230055 | 30 | 337 | 6.4 | 19.3 | 0.00 | 0.00 | 0.00 | 47 | 1005.1 |
| 20260505225528 | 31 | 360 | 6.4 | 17.7 | 0.00 | 0.00 | 0.00 | 47 | 1004.8 |
| 20260505225028 | 31 | 321 | 6.4 | 20.9 | 0.00 | 0.00 | 0.00 | 46 | 1004.9 |
| 20260505224541 | 31 | 292 | 4.8 | 20.9 | 0.00 | 0.00 | 0.00 | 48 | 1004.8 |
| 20260505224027 | 31 | 270 | 9.7 | 20.9 | 0.00 | 0.00 | 0.00 | 47 | 1004.8 |
| 20260505223527 | 31 | 246 | 6.4 | 12.9 | 0.00 | 0.00 | 0.00 | 50 | 1004.8 |
| 20260505223053 | 31 | 227 | 4.8 | 12.9 | 0.00 | 0.00 | 0.00 | 51 | 1004.5 |
| 20260505222531 | 31 | 204 | 3.2 | 12.9 | 0.00 | 0.00 | 0.00 | 50 | 1004.5 |
| 20260505222028 | 31 | 0 | 1.6 | 16.1 | 0.00 | 0.00 | 0.00 | 51 | 1004.4 |
| 20260505221542 | 31 | 262 | 6.4 | 16.1 | 0.00 | 0.00 | 0.00 | 50 | 1004.4 |
| 20260505221027 | 31 | 238 | 4.8 | 17.7 | 0.00 | 0.00 | 0.00 | 50 | 1004.4 |
| 20260505220526 | 32 | 159 | 4.8 | 17.7 | 0.00 | 0.00 | 0.00 | 51 | 1004.3 |
| 20260505220045 | 31 | 167 | 8.0 | 17.7 | 0.00 | 0.00 | 0.00 | 49 | 1004.4 |
| 20260505215528 | 32 | 209 | 6.4 | 24.1 | 0.00 | 0.00 | 0.00 | 49 | 1004.5 |
| 20260505215028 | 32 | 211 | 8.0 | 24.1 | 0.00 | 0.00 | 0.00 | 51 | 1004.6 |
| 20260505214541 | 32 | 236 | 6.4 | 19.3 | 0.00 | 0.00 | 0.00 | 50 | 1004.6 |
| 20260505214026 | 32 | 190 | 6.4 | 19.3 | 0.00 | 0.00 | 0.00 | 49 | 1004.5 |
| 20260505213527 | 32 | 226 | 6.4 | 17.7 | 0.00 | 0.00 | 0.00 | 50 | 1004.6 |
| 20260505213051 | 32 | 205 | 8.0 | 22.5 | 0.00 | 0.00 | 0.00 | 50 | 1004.7 |
| 20260505212531 | 32 | 232 | 8.0 | 22.5 | 0.00 | 0.00 | 0.00 | 50 | 1004.8 |
| 20260505212028 | 32 | 221 | 9.7 | 22.5 | 0.00 | 0.00 | 0.00 | 51 | 1004.7 |
| 20260505211542 | 32 | 214 | 9.7 | 19.3 | 0.00 | 0.00 | 0.00 | 51 | 1004.9 |
| 20260505211028 | 32 | 184 | 8.0 | 24.1 | 0.00 | 0.00 | 0.00 | 49 | 1004.9 |
| 20260505210527 | 32 | 211 | 9.7 | 24.1 | 0.00 | 0.00 | 0.00 | 51 | 1005.1 |
| 20260505210041 | 32 | 236 | 9.7 | 24.1 | 0.00 | 0.00 | 0.00 | 52 | 1004.9 |
| 20260505205528 | 31 | 185 | 11.3 | 25.7 | 0.00 | 0.00 | 0.00 | 51 | 1005.0 |
| 20260505205028 | 31 | 262 | 9.7 | 27.4 | 0.00 | 0.00 | 0.00 | 52 | 1005.0 |
| 20260505204542 | 31 | 215 | 14.5 | 27.4 | 0.00 | 0.00 | 0.00 | 52 | 1005.3 |
| 20260505204032 | 32 | 197 | 9.7 | 25.7 | 0.00 | 0.00 | 0.00 | 52 | 1005.2 |
| 20260505203527 | 32 | 217 | 11.3 | 25.7 | 0.00 | 0.00 | 0.00 | 51 | 1005.3 |
| 20260505203047 | 32 | 250 | 8.0 | 25.7 | 0.00 | 0.00 | 0.00 | 52 | 1005.4 |
| 20260505202529 | 31 | 280 | 4.8 | 25.7 | 0.00 | 0.00 | 0.00 | 54 | 1005.4 |
| 20260505202026 | 31 | 221 | 12.9 | 25.7 | 0.00 | 0.00 | 0.00 | 57 | 1005.4 |
| 20260505201537 | 31 | 227 | 9.7 | 25.7 | 0.00 | 0.00 | 0.00 | 57 | 1005.4 |
| 20260505201029 | 31 | 252 | 11.3 | 29.0 | 0.00 | 0.00 | 0.00 | 59 | 1005.4 |
| 20260505200528 | 30 | 188 | 17.7 | 29.0 | 0.00 | 0.00 | 0.00 | 58 | 1005.4 |
| 20260505200042 | 30 | 212 | 9.7 | 29.0 | 0.00 | 0.00 | 0.00 | 57 | 1005.5 |
| 20260505195527 | 31 | 170 | 9.7 | 29.0 | 0.00 | 0.00 | 0.00 | 58 | 1005.6 |
| 20260505195027 | 31 | 159 | 6.4 | 24.1 | 0.00 | 0.00 | 0.00 | 58 | 1005.6 |
| 20260505194547 | 30 | 171 | 9.7 | 32.2 | 0.00 | 0.00 | 0.00 | 59 | 1005.5 |
| 20260505194031 | 30 | 184 | 16.1 | 32.2 | 0.00 | 0.00 | 0.00 | 60 | 1005.6 |
| 20260505193527 | 29 | 360 | 14.5 | 29.0 | 0.00 | 0.00 | 0.00 | 61 | 1005.6 |
| 20260505193042 | 29 | 360 | 16.1 | 29.0 | 0.00 | 0.00 | 0.00 | 61 | 1005.6 |
| 20260505192529 | 29 | 207 | 12.9 | 30.6 | 0.00 | 0.00 | 0.00 | 61 | 1005.6 |
| 20260505192026 | 29 | 234 | 14.5 | 30.6 | 0.00 | 0.00 | 0.00 | 62 | 1005.7 |
| 20260505191540 | 28 | 217 | 9.7 | 33.8 | 0.00 | 0.00 | 0.00 | 64 | 1005.6 |
| 20260505191026 | 28 | 360 | 16.1 | 35.4 | 0.00 | 0.00 | 0.00 | 63 | 1005.6 |
| 20260505190532 | 28 | 360 | 12.9 | 35.4 | 0.00 | 0.00 | 0.00 | 64 | 1005.6 |
| 20260505190038 | 28 | 360 | 16.1 | 27.4 | 0.00 | 0.00 | 0.00 | 64 | 1005.6 |
| 20260505185529 | 28 | 227 | 12.9 | 30.6 | 0.00 | 0.00 | 0.00 | 64 | 1005.8 |
| 20260505185028 | 27 | 360 | 14.5 | 30.6 | 0.00 | 0.00 | 0.00 | 66 | 1005.8 |
| 20260505184541 | 27 | 256 | 16.1 | 27.4 | 0.00 | 0.00 | 0.00 | 65 | 1005.9 |
| 20260505184027 | 27 | 194 | 16.1 | 27.4 | 0.00 | 0.00 | 0.00 | 65 | 1006.0 |
| 20260505183528 | 27 | 222 | 11.3 | 27.4 | 0.00 | 0.00 | 0.00 | 66 | 1005.9 |
| 20260505183056 | 27 | 360 | 14.5 | 37.0 | 0.00 | 0.00 | 0.00 | 66 | 1005.9 |
| 20260505182527 | 27 | 195 | 19.3 | 37.0 | 0.00 | 0.00 | 0.00 | 65 | 1005.9 |
| 20260505182029 | 27 | 187 | 9.7 | 30.6 | 0.00 | 0.00 | 0.00 | 66 | 1005.8 |
| 20260505181543 | 27 | 209 | 14.5 | 25.7 | 0.00 | 0.00 | 0.00 | 65 | 1005.9 |
| 20260505181025 | 27 | 154 | 9.7 | 27.4 | 0.00 | 0.00 | 0.00 | 65 | 1006.0 |
| 20260505180527 | 27 | 219 | 11.3 | 29.0 | 0.00 | 0.00 | 0.00 | 66 | 1005.9 |
| 20260505180041 | 27 | 209 | 17.7 | 33.8 | 0.00 | 0.00 | 0.00 | 66 | 1005.9 |
| 20260505175528 | 27 | 188 | 12.9 | 35.4 | 0.00 | 0.00 | 0.00 | 67 | 1005.9 |
| 20260505175028 | 27 | 186 | 14.5 | 35.4 | 0.00 | 0.00 | 0.00 | 67 | 1005.9 |
| 20260505174535 | 27 | 178 | 9.7 | 29.0 | 0.00 | 0.00 | 0.00 | 68 | 1005.9 |
| 20260505174027 | 27 | 360 | 16.1 | 29.0 | 0.00 | 0.00 | 0.00 | 68 | 1006.0 |
| 20260505173529 | 27 | 209 | 14.5 | 32.2 | 0.00 | 0.00 | 0.00 | 69 | 1005.9 |
| 20260505173047 | 26 | 360 | 11.3 | 37.0 | 0.00 | 0.00 | 0.00 | 70 | 1005.9 |
| 20260505172526 | 26 | 185 | 20.9 | 37.0 | 0.00 | 0.00 | 0.00 | 70 | 1006.0 |
| 20260505172027 | 26 | 215 | 16.1 | 35.4 | 0.00 | 0.00 | 0.00 | 70 | 1006.1 |
| 20260505171543 | 26 | 131 | 16.1 | 35.4 | 0.00 | 0.00 | 0.00 | 70 | 1006.0 |
| 20260505171031 | 26 | 239 | 16.1 | 40.2 | 0.00 | 0.00 | 0.00 | 71 | 1006.1 |
| 20260505170528 | 26 | 187 | 19.3 | 40.2 | 0.00 | 0.00 | 0.00 | 71 | 1006.1 |
| 20260505170042 | 25 | 360 | 19.3 | 37.0 | 0.00 | 0.00 | 0.00 | 71 | 1006.1 |
| 20260505165527 | 25 | 360 | 14.5 | 35.4 | 0.00 | 0.00 | 0.00 | 72 | 1006.1 |
| 20260505165028 | 25 | 201 | 19.3 | 35.4 | 0.00 | 0.00 | 0.00 | 71 | 1006.1 |
| 20260505164556 | 25 | 360 | 14.5 | 33.8 | 0.00 | 0.00 | 0.00 | 72 | 1006.0 |
| 20260505164028 | 25 | 208 | 16.1 | 33.8 | 0.00 | 0.00 | 0.00 | 72 | 1005.9 |
| 20260505163528 | 25 | 209 | 17.7 | 37.0 | 0.00 | 0.00 | 0.00 | 72 | 1005.9 |
| 20260505163051 | 25 | 168 | 19.3 | 38.6 | 0.00 | 0.00 | 0.00 | 72 | 1005.9 |
| 20260505162526 | 25 | 222 | 20.9 | 38.6 | 0.00 | 0.00 | 0.00 | 72 | 1005.8 |
| 20260505162027 | 25 | 194 | 14.5 | 33.8 | 0.00 | 0.00 | 0.00 | 72 | 1005.8 |
| 20260505161544 | 25 | 201 | 16.1 | 41.8 | 0.00 | 0.00 | 0.00 | 73 | 1005.8 |
| 20260505161025 | 25 | 219 | 19.3 | 41.8 | 0.00 | 0.00 | 0.00 | 73 | 1005.9 |
| 20260505160525 | 25 | 183 | 19.3 | 40.2 | 0.00 | 0.00 | 0.00 | 73 | 1005.8 |
| 20260505153053 | 23 | 257 | 19.3 | 49.9 | 0.00 | 0.00 | 0.00 | 76 | 1005.5 |
| 20260505152527 | 23 | 228 | 25.7 | 49.9 | 0.00 | 0.00 | 0.00 | 76 | 1005.6 |
| 20260505152028 | 23 | 170 | 12.9 | 45.1 | 0.00 | 0.00 | 0.00 | 76 | 1005.7 |
| 20260505151553 | 23 | 204 | 24.1 | 45.1 | 0.00 | 0.00 | 0.00 | 77 | 1005.8 |
| 20260505151026 | 23 | 215 | 19.3 | 41.8 | 0.00 | 0.00 | 0.00 | 77 | 1005.9 |
| 20260505150527 | 23 | 193 | 20.9 | 41.8 | 0.00 | 0.00 | 0.00 | 77 | 1005.8 |
| 20260505140527 | 22 | 190 | 16.1 | 37.0 | 0.00 | 0.00 | 0.00 | 79 | 1005.7 |
| 20260505125027 | 21 | 182 | 16.1 | 32.2 | 0.00 | 0.00 | 0.00 | 82 | 1005.2 |
| 20260505124543 | 21 | 360 | 11.3 | 38.6 | 0.00 | 0.00 | 0.00 | 82 | 1005.2 |
| 20260505124029 | 21 | 194 | 19.3 | 38.6 | 0.00 | 0.00 | 0.00 | 82 | 1005.2 |
| 20260505123528 | 21 | 168 | 19.3 | 30.6 | 0.00 | 0.00 | 0.00 | 82 | 1005.2 |
| 20260505123042 | 21 | 360 | 16.1 | 38.6 | 0.00 | 0.00 | 0.00 | 82 | 1005.1 |
| 20260505122528 | 21 | 188 | 16.1 | 38.6 | 0.00 | 0.00 | 0.00 | 82 | 1004.8 |
| 20260505122028 | 21 | 149 | 14.5 | 33.8 | 0.00 | 0.00 | 0.00 | 82 | 1004.8 |
| 20260505121542 | 21 | 178 | 17.7 | 35.4 | 0.00 | 0.00 | 0.00 | 82 | 1004.9 |
| 20260505121029 | 21 | 229 | 17.7 | 46.7 | 0.00 | 0.00 | 0.00 | 82 | 1004.7 |
| 20260505120528 | 21 | 207 | 20.9 | 46.7 | 0.00 | 0.00 | 0.00 | 82 | 1004.7 |
| 20260505120046 | 21 | 211 | 17.7 | 43.5 | 0.00 | 0.00 | 0.00 | 82 | 1004.8 |
| 20260505115529 | 21 | 360 | 16.1 | 38.6 | 0.00 | 0.00 | 0.00 | 82 | 1004.6 |
| 20260505115033 | 21 | 149 | 17.7 | 38.6 | 0.00 | 0.00 | 0.00 | 81 | 1004.6 |
| 20260505114545 | 21 | 199 | 17.7 | 38.6 | 0.00 | 0.00 | 0.00 | 81 | 1004.6 |
| 20260505114028 | 21 | 163 | 9.7 | 38.6 | 0.00 | 0.00 | 0.00 | 81 | 1004.6 |
| 20260505113528 | 21 | 360 | 17.7 | 45.1 | 0.00 | 0.00 | 0.00 | 81 | 1004.5 |
| 20260505113037 | 21 | 185 | 17.7 | 45.1 | 0.00 | 0.00 | 0.00 | 81 | 1004.5 |
| 20260505112529 | 21 | 208 | 12.9 | 33.8 | 0.00 | 0.00 | 0.00 | 81 | 1004.5 |
| 20260505112028 | 21 | 225 | 17.7 | 41.8 | 0.00 | 0.00 | 0.00 | 81 | 1004.7 |
| 20260505111550 | 21 | 182 | 19.3 | 41.8 | 0.00 | 0.00 | 0.00 | 81 | 1004.4 |
| 20260505111029 | 21 | 360 | 14.5 | 32.2 | 0.00 | 0.00 | 0.00 | 81 | 1004.6 |
| 20260505110529 | 21 | 221 | 12.9 | 32.2 | 0.00 | 0.00 | 0.00 | 81 | 1004.7 |
| 20260505102027 | 21 | 203 | 16.1 | 37.0 | 0.00 | 0.00 | 0.00 | 81 | 1004.4 |
| 20260505101538 | 21 | 163 | 22.5 | 43.5 | 0.00 | 0.00 | 0.00 | 81 | 1004.7 |
| 20260505101027 | 21 | 186 | 20.9 | 43.5 | 0.00 | 0.00 | 0.00 | 81 | 1004.6 |
| 20260505100527 | 21 | 213 | 20.9 | 45.1 | 0.00 | 0.00 | 0.00 | 81 | 1004.6 |
| 20260505100042 | 21 | 159 | 16.1 | 45.1 | 0.00 | 0.00 | 0.00 | 81 | 1004.5 |
| 20260505095531 | 21 | 173 | 16.1 | 33.8 | 0.00 | 0.00 | 0.00 | 81 | 1004.6 |
| 20260505095027 | 21 | 184 | 16.1 | 37.0 | 0.00 | 0.00 | 0.00 | 81 | 1004.6 |
| 20260505094542 | 21 | 212 | 16.1 | 37.0 | 0.00 | 0.00 | 0.00 | 81 | 1004.8 |
| 20260505094029 | 21 | 169 | 19.3 | 43.5 | 0.00 | 0.00 | 0.00 | 81 | 1004.6 |
| 20260505093527 | 21 | 147 | 19.3 | 43.5 | 0.00 | 0.00 | 0.00 | 81 | 1004.7 |
| 20260505093042 | 21 | 175 | 17.7 | 43.5 | 0.00 | 0.00 | 0.00 | 81 | 1004.6 |
| 20260505092527 | 21 | 187 | 19.3 | 37.0 | 0.00 | 0.00 | 0.00 | 81 | 1004.7 |
| 20260505092027 | 21 | 178 | 19.3 | 41.8 | 0.00 | 0.00 | 0.00 | 81 | 1004.8 |
| 20260505091554 | 21 | 196 | 14.5 | 41.8 | 0.00 | 0.00 | 0.00 | 81 | 1004.8 |
| 20260505091027 | 21 | 158 | 20.9 | 41.8 | 0.00 | 0.00 | 0.00 | 81 | 1004.9 |
| 20260505090527 | 21 | 171 | 22.5 | 41.8 | 0.00 | 0.00 | 0.00 | 81 | 1004.9 |
| 20260505090054 | 21 | 180 | 20.9 | 41.8 | 0.00 | 0.00 | 0.00 | 81 | 1004.9 |
| 20260505085528 | 21 | 160 | 17.7 | 41.8 | 0.00 | 0.00 | 0.00 | 81 | 1005.0 |
| 20260505085027 | 21 | 170 | 20.9 | 38.6 | 0.00 | 0.00 | 0.00 | 81 | 1005.0 |
| 20260505084543 | 21 | 176 | 17.7 | 41.8 | 0.00 | 0.00 | 0.00 | 81 | 1005.1 |
| 20260505084027 | 21 | 360 | 17.7 | 48.3 | 0.00 | 0.00 | 0.00 | 81 | 1005.1 |
| 20260505083529 | 21 | 178 | 19.3 | 48.3 | 0.00 | 0.00 | 0.00 | 81 | 1005.1 |
| 20260505083047 | 21 | 153 | 14.5 | 38.6 | 0.00 | 0.00 | 0.00 | 81 | 1004.9 |
| 20260505082527 | 21 | 202 | 17.7 | 38.6 | 0.00 | 0.00 | 0.00 | 81 | 1005.0 |
| 20260505082029 | 21 | 360 | 16.1 | 38.6 | 0.00 | 0.00 | 0.00 | 80 | 1005.0 |
| 20260505081555 | 21 | 360 | 14.5 | 38.6 | 0.00 | 0.00 | 0.00 | 80 | 1005.0 |
| 20260505081028 | 21 | 149 | 12.9 | 32.2 | 0.00 | 0.00 | 0.00 | 80 | 1005.1 |
| 20260505080532 | 21 | 360 | 14.5 | 32.2 | 0.00 | 0.00 | 0.00 | 80 | 1005.0 |
| 20260505080048 | 21 | 135 | 11.3 | 35.4 | 0.00 | 0.00 | 0.00 | 80 | 1005.1 |
| 20260505075527 | 21 | 217 | 12.9 | 35.4 | 0.00 | 0.00 | 0.00 | 79 | 1005.2 |
| 20260505075029 | 21 | 186 | 14.5 | 33.8 | 0.00 | 0.00 | 0.00 | 79 | 1005.1 |
| 20260505074602 | 21 | 157 | 16.1 | 33.8 | 0.00 | 0.00 | 0.00 | 79 | 1005.3 |
| 20260505074028 | 21 | 204 | 20.9 | 33.8 | 0.00 | 0.00 | 0.00 | 78 | 1005.4 |
| 20260505073531 | 21 | 179 | 16.1 | 33.8 | 0.00 | 0.00 | 0.00 | 78 | 1005.4 |
| 20260505073044 | 22 | 155 | 16.1 | 33.8 | 0.00 | 0.00 | 0.00 | 78 | 1005.6 |
| 20260505072530 | 22 | 360 | 12.9 | 35.4 | 0.00 | 0.00 | 0.00 | 78 | 1005.9 |
| 20260505072028 | 22 | 360 | 14.5 | 35.4 | 0.00 | 0.00 | 0.00 | 78 | 1006.0 |
| 20260505071538 | 22 | 360 | 14.5 | 30.6 | 0.00 | 0.00 | 0.00 | 77 | 1006.0 |